MDL1735 WIII-VOMM

Flight info

Callsign MDL1735
Flight time 4h 23m
Altitude 36000
Route RIMTI M766 OBMAT L896 DUGOS N564 AKMIL DCT TRYCO
Aircraft A20N/M-SDE2E3FGHIRWXY/LB1

Departure

Time 2026-04-22 15:30
Airport Soekarno-Hatta International Airport (WIII)

Arrival

Time 2026-04-22 19:53
Airport Chennai International Airport (VOMM)
Time Latitude Longitude Altitude Speed Heading
2026-04-22 15:14 -6.12075 106.65650 45 ft 0 kts 254°
2026-04-22 15:19 -6.12075 106.65651 45 ft 1 kts 254°
2026-04-22 15:19 -6.12072 106.65663 45 ft 2 kts 254°
2026-04-22 15:20 -6.12067 106.65681 45 ft 3 kts 254°
2026-04-22 15:20 -6.12065 106.65701 45 ft 3 kts 274°
2026-04-22 15:20 -6.12070 106.65718 45 ft 3 kts 302°
2026-04-22 15:20 -6.12083 106.65733 45 ft 3 kts 329°
2026-04-22 15:21 -6.12089 106.65736 45 ft 0 kts 340°
2026-04-22 15:21 -6.12088 106.65736 45 ft 0 kts 340°
2026-04-22 15:21 -6.12084 106.65734 45 ft 2 kts 341°
2026-04-22 15:22 -6.12053 106.65724 45 ft 7 kts 342°
2026-04-22 15:22 -6.11987 106.65702 45 ft 11 kts 339°
2026-04-22 15:22 -6.11919 106.65676 45 ft 9 kts 338°
2026-04-22 15:22 -6.11863 106.65652 45 ft 9 kts 338°
2026-04-22 15:23 -6.11802 106.65627 45 ft 10 kts 338°
2026-04-22 15:23 -6.11736 106.65600 45 ft 11 kts 338°
2026-04-22 15:23 -6.11669 106.65567 45 ft 11 kts 316°
2026-04-22 15:23 -6.11653 106.65494 45 ft 12 kts 255°
2026-04-22 15:24 -6.11684 106.65412 45 ft 14 kts 248°
2026-04-22 15:24 -6.11720 106.65318 45 ft 15 kts 249°
2026-04-22 15:24 -6.11760 106.65215 45 ft 17 kts 249°
2026-04-22 15:24 -6.11803 106.65105 45 ft 17 kts 248°
2026-04-22 15:25 -6.11846 106.64998 45 ft 16 kts 248°
2026-04-22 15:25 -6.11886 106.64895 45 ft 16 kts 249°
2026-04-22 15:25 -6.11925 106.64794 45 ft 15 kts 249°
2026-04-22 15:25 -6.11962 106.64696 45 ft 15 kts 249°
2026-04-22 15:26 -6.11999 106.64601 45 ft 15 kts 249°
2026-04-22 15:26 -6.12034 106.64507 45 ft 14 kts 249°
2026-04-22 15:26 -6.12070 106.64415 45 ft 14 kts 248°
2026-04-22 15:26 -6.12106 106.64324 45 ft 14 kts 248°
2026-04-22 15:27 -6.12143 106.64234 45 ft 14 kts 247°
2026-04-22 15:27 -6.12180 106.64145 45 ft 14 kts 248°
2026-04-22 15:27 -6.12216 106.64057 45 ft 14 kts 248°
2026-04-22 15:27 -6.12248 106.63967 45 ft 13 kts 261°
2026-04-22 15:28 -6.12212 106.63893 45 ft 12 kts 338°
2026-04-22 15:28 -6.12132 106.63900 45 ft 12 kts 20°
2026-04-22 15:28 -6.12073 106.63943 45 ft 11 kts 69°
2026-04-22 15:28 -6.12000 106.64133 46 ft 53 kts 66°
2026-04-22 15:29 -6.11796 106.64640 46 ft 102 kts 69°
2026-04-22 15:29 -6.11476 106.65443 46 ft 145 kts 70°
2026-04-22 15:29 -6.11072 106.66491 158 ft 168 kts 68°
2026-04-22 15:30 -6.09956 106.68430 1007 ft 169 kts 30°
2026-04-22 15:30 -6.08805 106.68606 1356 ft 171 kts 348°
2026-04-22 15:30 -6.07794 106.68062 1927 ft 163 kts 324°
2026-04-22 15:30 -6.06887 106.67308 2142 ft 173 kts 319°
2026-04-22 15:31 -6.05991 106.66503 2449 ft 176 kts 318°
2026-04-22 15:31 -6.05074 106.65669 2742 ft 179 kts 319°
2026-04-22 15:31 -6.04136 106.64823 2992 ft 186 kts 321°
2026-04-22 15:31 -6.03156 106.63951 3243 ft 192 kts 322°
2026-04-22 15:32 -6.02131 106.63050 3491 ft 199 kts 321°
2026-04-22 15:32 -6.01080 106.62127 3755 ft 204 kts 319°
2026-04-22 15:32 -6.00004 106.61177 4044 ft 208 kts 319°
2026-04-22 15:32 -5.98906 106.60209 4325 ft 213 kts 319°
2026-04-22 15:33 -5.97766 106.59207 4580 ft 221 kts 319°
2026-04-22 15:33 -5.96588 106.58180 4867 ft 229 kts 319°
2026-04-22 15:33 -5.95366 106.57123 5144 ft 236 kts 320°
2026-04-22 15:33 -5.94105 106.56034 5418 ft 244 kts 319°
2026-04-22 15:34 -5.92785 106.54890 5631 ft 260 kts 319°
2026-04-22 15:34 -5.91381 106.53674 5934 ft 274 kts 319°
2026-04-22 15:34 -5.89912 106.52399 6305 ft 285 kts 319°
2026-04-22 15:34 -5.88395 106.51084 6815 ft 292 kts 319°
2026-04-22 15:35 -5.87369 106.50193 7216 ft 294 kts 319°
2026-04-22 15:35 -5.85301 106.48401 8090 ft 294 kts 319°
2026-04-22 15:35 -5.83776 106.47042 8716 ft 296 kts 313°
2026-04-22 15:35 -5.82478 106.45441 9329 ft 296 kts 303°
2026-04-22 15:36 -5.81396 106.43667 9842 ft 300 kts 297°
2026-04-22 15:36 -5.80446 106.41793 10287 ft 307 kts 294°
2026-04-22 15:36 -5.79685 106.40144 10518 ft 319 kts 293°
2026-04-22 15:36 -5.78767 106.38062 10827 ft 332 kts 292°
2026-04-22 15:37 -5.77828 106.35916 11236 ft 343 kts 293°
2026-04-22 15:37 -5.77041 106.34127 11699 ft 347 kts 293°
2026-04-22 15:37 -5.76059 106.31915 12368 ft 350 kts 293°
2026-04-22 15:37 -5.75044 106.29677 13018 ft 353 kts 294°
2026-04-22 15:38 -5.74016 106.27431 13667 ft 356 kts 294°
2026-04-22 15:38 -5.71866 106.22927 14896 ft 363 kts 295°
2026-04-22 15:38 -5.70740 106.20652 15471 ft 367 kts 295°
2026-04-22 15:39 -5.69593 106.18335 15854 ft 377 kts 295°
2026-04-22 15:39 -5.68412 106.15953 16208 ft 387 kts 296°
2026-04-22 15:39 -5.67206 106.13525 16772 ft 390 kts 297°
2026-04-22 15:39 -5.65999 106.11090 17460 ft 390 kts 297°
2026-04-22 15:40 -5.64796 106.08663 18112 ft 391 kts 297°
2026-04-22 15:40 -5.63579 106.06207 18664 ft 394 kts 297°
2026-04-22 15:40 -5.62361 106.03749 19168 ft 398 kts 297°
2026-04-22 15:40 -5.61121 106.01248 19670 ft 402 kts 297°
2026-04-22 15:41 -5.59879 105.98717 20173 ft 406 kts 296°
2026-04-22 15:41 -5.58643 105.96182 20671 ft 409 kts 297°
2026-04-22 15:41 -5.57383 105.93620 21224 ft 410 kts 296°
2026-04-22 15:41 -5.56135 105.91064 21864 ft 409 kts 296°
2026-04-22 15:42 -5.54883 105.88502 22427 ft 410 kts 296°
2026-04-22 15:42 -5.53618 105.85928 22869 ft 413 kts 296°
2026-04-22 15:42 -5.52335 105.83329 23240 ft 419 kts 296°
2026-04-22 15:42 -5.51042 105.80712 23617 ft 424 kts 296°
2026-04-22 15:43 -5.49728 105.78056 24050 ft 427 kts 296°
2026-04-22 15:43 -5.48406 105.75380 24534 ft 428 kts 296°
2026-04-22 15:43 -5.47099 105.72708 25020 ft 430 kts 296°
2026-04-22 15:43 -5.45783 105.70025 25460 ft 432 kts 296°
2026-04-22 15:44 -5.44452 105.67317 25852 ft 435 kts 296°
2026-04-22 15:44 -5.43128 105.64584 26231 ft 438 kts 295°
2026-04-22 15:44 -5.41825 105.61806 26608 ft 441 kts 293°
2026-04-22 15:44 -5.40634 105.58976 26984 ft 443 kts 291°
2026-04-22 15:45 -5.39532 105.56088 27365 ft 445 kts 290°
2026-04-22 15:45 -5.38474 105.53160 27759 ft 446 kts 290°
2026-04-22 15:45 -5.37444 105.50237 28119 ft 448 kts 289°
2026-04-22 15:45 -5.36404 105.47287 28451 ft 450 kts 290°
2026-04-22 15:46 -5.35353 105.44335 28770 ft 452 kts 290°
2026-04-22 15:46 -5.34272 105.41367 29070 ft 455 kts 290°
2026-04-22 15:46 -5.33164 105.38385 29351 ft 457 kts 290°
2026-04-22 15:46 -5.32049 105.35412 29627 ft 459 kts 291°
2026-04-22 15:47 -5.30918 105.32411 29903 ft 462 kts 291°
2026-04-22 15:47 -5.29776 105.29393 30179 ft 464 kts 291°
2026-04-22 15:47 -5.28632 105.26372 30454 ft 465 kts 291°
2026-04-22 15:47 -5.27487 105.23351 30733 ft 466 kts 291°
2026-04-22 15:48 -5.26666 105.21169 30950 ft 467 kts 290°
2026-04-22 15:48 -5.25513 105.18133 31284 ft 466 kts 292°
2026-04-22 15:48 -5.24240 105.15148 31646 ft 465 kts 295°
2026-04-22 15:48 -5.22916 105.12209 32017 ft 463 kts 294°
2026-04-22 15:49 -5.21585 105.09272 32378 ft 461 kts 295°
2026-04-22 15:49 -5.20244 105.06382 32742 ft 459 kts 295°
2026-04-22 15:49 -5.18866 105.03494 33095 ft 457 kts 296°
2026-04-22 15:49 -5.17476 105.00653 33406 ft 456 kts 296°
2026-04-22 15:50 -5.16068 104.97818 33688 ft 455 kts 297°
2026-04-22 15:50 -5.14652 104.94989 33957 ft 454 kts 297°
2026-04-22 15:50 -5.13235 104.92170 34209 ft 453 kts 297°
2026-04-22 15:50 -5.11818 104.89358 34456 ft 453 kts 297°
2026-04-22 15:51 -5.10416 104.86544 34687 ft 452 kts 296°
2026-04-22 15:51 -5.09031 104.83724 34911 ft 451 kts 296°
2026-04-22 15:51 -5.07650 104.80909 35134 ft 451 kts 296°
2026-04-22 15:51 -5.06253 104.78096 35356 ft 450 kts 297°
2026-04-22 15:52 -5.04863 104.75298 35561 ft 449 kts 296°
2026-04-22 15:52 -5.03490 104.72505 35734 ft 449 kts 296°
2026-04-22 15:52 -5.02103 104.69706 35854 ft 450 kts 296°
2026-04-22 15:52 -5.00710 104.66891 35884 ft 450 kts 296°
2026-04-22 15:53 -4.97933 104.61273 35887 ft 455 kts 296°
2026-04-22 15:53 -4.95099 104.55537 35888 ft 463 kts 296°
2026-04-22 15:54 -4.92227 104.49716 35888 ft 472 kts 296°
2026-04-22 15:54 -4.89310 104.43788 35888 ft 479 kts 296°
2026-04-22 15:55 -4.86383 104.37783 35885 ft 480 kts 296°
2026-04-22 15:55 -4.83431 104.31797 35885 ft 480 kts 296°
2026-04-22 15:56 -4.80501 104.25795 35886 ft 481 kts 296°
2026-04-22 15:56 -4.77549 104.19802 35886 ft 481 kts 296°
2026-04-22 15:57 -4.74601 104.13793 35890 ft 481 kts 296°
2026-04-22 15:57 -4.71660 104.07798 35885 ft 480 kts 296°
2026-04-22 15:58 -4.68718 104.01803 35888 ft 481 kts 296°
2026-04-22 15:58 -4.65780 103.95815 35887 ft 480 kts 296°
2026-04-22 15:59 -4.62832 103.89807 35888 ft 481 kts 296°
2026-04-22 15:59 -4.59895 103.83824 35888 ft 481 kts 296°
2026-04-22 16:00 -4.56924 103.77840 35891 ft 481 kts 296°
2026-04-22 16:00 -4.53985 103.71842 35891 ft 481 kts 296°
2026-04-22 16:01 -4.51043 103.65847 35892 ft 480 kts 296°
2026-04-22 16:01 -4.48077 103.59896 35892 ft 478 kts 296°
2026-04-22 16:02 -4.45150 103.53918 35895 ft 478 kts 296°
2026-04-22 16:02 -4.42211 103.47967 35896 ft 478 kts 296°
2026-04-22 16:03 -4.39270 103.41994 35896 ft 478 kts 296°
2026-04-22 16:03 -4.36339 103.36037 35897 ft 478 kts 296°
2026-04-22 16:04 -4.33407 103.30076 35899 ft 478 kts 296°
2026-04-22 16:04 -4.30467 103.24100 35899 ft 478 kts 296°
2026-04-22 16:05 -4.27532 103.18136 35899 ft 478 kts 296°
2026-04-22 16:05 -4.24605 103.12180 35899 ft 478 kts 296°
2026-04-22 16:06 -4.21651 103.06228 35899 ft 478 kts 296°
2026-04-22 16:06 -4.18716 103.00269 35901 ft 478 kts 296°
2026-04-22 16:07 -4.15771 102.94311 35901 ft 478 kts 296°
2026-04-22 16:07 -4.12826 102.88352 35902 ft 478 kts 296°
2026-04-22 16:08 -4.09885 102.82396 35902 ft 478 kts 296°
2026-04-22 16:08 -4.06946 102.76442 35903 ft 478 kts 296°
2026-04-22 16:09 -4.04003 102.70479 35903 ft 478 kts 296°
2026-04-22 16:09 -4.01065 102.64524 35905 ft 479 kts 296°
2026-04-22 16:10 -3.98119 102.58553 35903 ft 478 kts 296°
2026-04-22 16:10 -3.95180 102.52595 35904 ft 478 kts 296°
2026-04-22 16:11 -3.92248 102.46634 35904 ft 478 kts 296°
2026-04-22 16:11 -3.89305 102.40692 35904 ft 478 kts 297°
2026-04-22 16:12 -3.86346 102.34742 35904 ft 478 kts 296°
2026-04-22 16:12 -3.83395 102.28780 35904 ft 478 kts 297°
2026-04-22 16:13 -3.80456 102.22836 35904 ft 478 kts 297°
2026-04-22 16:13 -3.77509 102.16882 35904 ft 478 kts 296°
2026-04-22 16:14 -3.74558 102.10918 35904 ft 478 kts 296°
2026-04-22 16:14 -3.71616 102.04975 35904 ft 478 kts 296°
2026-04-22 16:15 -3.68671 101.99023 35904 ft 478 kts 296°
2026-04-22 16:15 -3.65726 101.93070 35903 ft 478 kts 296°
2026-04-22 16:16 -3.62783 101.87118 35903 ft 478 kts 296°
2026-04-22 16:16 -3.59836 101.81152 35903 ft 478 kts 296°
2026-04-22 16:17 -3.56908 101.75204 35903 ft 478 kts 296°
2026-04-22 16:17 -3.53937 101.69254 35903 ft 478 kts 297°
2026-04-22 16:18 -3.50986 101.63317 35903 ft 479 kts 296°
2026-04-22 16:18 -3.48071 101.57409 35898 ft 468 kts 296°
2026-04-22 16:19 -3.45221 101.51650 35903 ft 458 kts 296°
2026-04-22 16:19 -3.42396 101.45967 35904 ft 454 kts 297°
2026-04-22 16:20 -3.39605 101.40358 35891 ft 452 kts 296°
2026-04-22 16:20 -3.36820 101.34742 35900 ft 451 kts 296°
2026-04-22 16:21 -3.34048 101.29115 35915 ft 452 kts 296°
2026-04-22 16:21 -3.31253 101.23481 35906 ft 452 kts 297°
2026-04-22 16:22 -3.27039 101.15023 35908 ft 455 kts 296°
2026-04-22 16:23 -3.22860 101.06553 35912 ft 453 kts 296°
2026-04-22 16:23 -3.20057 101.00932 35899 ft 452 kts 296°
2026-04-22 16:24 -3.15841 100.92471 35902 ft 457 kts 296°
2026-04-22 16:25 -3.13026 100.86804 35901 ft 455 kts 296°
2026-04-22 16:25 -3.08832 100.78343 35901 ft 453 kts 296°
2026-04-22 16:26 -3.06037 100.72717 35901 ft 454 kts 297°
2026-04-22 16:26 -3.03213 100.67070 35901 ft 455 kts 296°
2026-04-22 16:27 -3.00405 100.61412 35902 ft 457 kts 296°
2026-04-22 16:27 -2.97599 100.55740 35886 ft 454 kts 296°
2026-04-22 16:28 -2.94797 100.50100 35906 ft 454 kts 297°
2026-04-22 16:28 -2.91971 100.44426 35901 ft 455 kts 296°
2026-04-22 16:29 -2.89182 100.38775 35901 ft 454 kts 296°
2026-04-22 16:29 -2.86364 100.33148 35908 ft 454 kts 297°
2026-04-22 16:30 -2.83526 100.27488 35918 ft 458 kts 296°
2026-04-22 16:30 -2.80709 100.21820 35905 ft 455 kts 296°
2026-04-22 16:31 -2.77897 100.16162 35913 ft 455 kts 296°
2026-04-22 16:31 -2.75083 100.10504 35916 ft 454 kts 297°
2026-04-22 16:32 -2.72275 100.04864 35914 ft 455 kts 296°
2026-04-22 16:32 -2.69451 99.99192 35894 ft 454 kts 297°
2026-04-22 16:33 -2.65746 99.94144 35919 ft 455 kts 317°
2026-04-22 16:33 -2.60595 99.90469 35918 ft 457 kts 329°
2026-04-22 16:34 -2.55079 99.87366 35910 ft 454 kts 329°
2026-04-22 16:34 -2.49767 99.84020 35897 ft 452 kts 325°
2026-04-22 16:35 -2.44549 99.80470 35898 ft 457 kts 325°
2026-04-22 16:35 -2.39274 99.76857 35906 ft 465 kts 325°
2026-04-22 16:36 -2.34117 99.72912 35907 ft 474 kts 316°
2026-04-22 16:36 -2.29807 99.67890 35909 ft 479 kts 306°
2026-04-22 16:37 -2.26136 99.62356 35905 ft 478 kts 302°
2026-04-22 16:37 -2.22591 99.56743 35903 ft 478 kts 303°
2026-04-22 16:38 -2.18928 99.51216 35904 ft 479 kts 304°
2026-04-22 16:38 -2.15127 99.45769 35904 ft 478 kts 305°
2026-04-22 16:39 -2.11304 99.40348 35904 ft 478 kts 305°
2026-04-22 16:39 -2.07491 99.34912 35901 ft 478 kts 305°
2026-04-22 16:40 -2.03682 99.29474 35900 ft 478 kts 305°
2026-04-22 16:41 -1.97973 99.21318 35901 ft 479 kts 305°
2026-04-22 16:41 -1.94180 99.15861 35901 ft 478 kts 305°
2026-04-22 16:42 -1.90401 99.10415 35900 ft 478 kts 304°
2026-04-22 16:42 -1.86648 99.04941 35900 ft 478 kts 304°
2026-04-22 16:43 -1.82863 98.99491 35900 ft 478 kts 305°
2026-04-22 16:43 -1.79056 98.94039 35900 ft 478 kts 305°
2026-04-22 16:44 -1.75256 98.88607 35898 ft 478 kts 305°
2026-04-22 16:44 -1.71454 98.83173 35900 ft 478 kts 305°
2026-04-22 16:45 -1.68283 98.78643 35900 ft 479 kts 305°
2026-04-22 16:45 -1.64453 98.73171 35900 ft 478 kts 305°
2026-04-22 16:46 -1.60653 98.67741 35902 ft 479 kts 305°
2026-04-22 16:46 -1.56848 98.62305 35898 ft 478 kts 305°
2026-04-22 16:47 -1.53351 98.57278 35900 ft 478 kts 305°
2026-04-22 16:47 -1.49546 98.51826 35900 ft 479 kts 304°
2026-04-22 16:48 -1.45797 98.46368 35900 ft 478 kts 304°
2026-04-22 16:48 -1.42030 98.40904 35900 ft 478 kts 304°
2026-04-22 16:49 -1.38228 98.35449 35902 ft 479 kts 305°
2026-04-22 16:49 -1.34433 98.30019 35897 ft 478 kts 305°
2026-04-22 16:50 -1.30630 98.24584 35899 ft 478 kts 305°
2026-04-22 16:50 -1.26817 98.19138 35899 ft 479 kts 305°
2026-04-22 16:51 -1.23011 98.13701 35899 ft 478 kts 305°
2026-04-22 16:51 -1.19207 98.08268 35899 ft 478 kts 305°
2026-04-22 16:52 -1.15407 98.02839 35899 ft 478 kts 305°
2026-04-22 16:52 -1.11810 97.97276 35898 ft 478 kts 295°
2026-04-22 16:53 -1.09833 97.90965 35902 ft 479 kts 279°
2026-04-22 16:53 -1.09199 97.84355 35901 ft 479 kts 273°
2026-04-22 16:54 -1.09024 97.77706 35899 ft 479 kts 271°
2026-04-22 16:54 -1.08611 97.71095 35898 ft 477 kts 282°
2026-04-22 16:55 -1.06407 97.64887 35902 ft 477 kts 297°
2026-04-22 16:55 -1.02882 97.59314 35902 ft 476 kts 306°
2026-04-22 16:56 -0.99010 97.53975 35899 ft 476 kts 307°
2026-04-22 16:56 -0.95086 97.48671 35898 ft 476 kts 306°
2026-04-22 16:57 -0.91185 97.43326 35898 ft 476 kts 306°
2026-04-22 16:57 -0.87311 97.37983 35898 ft 476 kts 306°
2026-04-22 16:58 -0.84059 97.33541 35898 ft 476 kts 306°
2026-04-22 16:58 -0.79528 97.27326 35898 ft 476 kts 306°
2026-04-22 16:59 -0.75638 97.21991 35898 ft 476 kts 306°
2026-04-22 16:59 -0.71748 97.16659 35898 ft 476 kts 306°
2026-04-22 17:00 -0.67849 97.11315 35898 ft 476 kts 306°
2026-04-22 17:00 -0.62009 97.03317 35898 ft 476 kts 306°
2026-04-22 17:01 -0.58114 96.98006 35898 ft 476 kts 306°
2026-04-22 17:01 -0.54227 96.92650 35898 ft 476 kts 306°
2026-04-22 17:02 -0.50331 96.87320 35898 ft 476 kts 306°
2026-04-22 17:02 -0.46448 96.81991 35898 ft 476 kts 306°
2026-04-22 17:03 -0.42559 96.76661 35898 ft 476 kts 306°
2026-04-22 17:03 -0.38658 96.71318 35897 ft 476 kts 306°
2026-04-22 17:04 -0.34772 96.65994 35898 ft 476 kts 306°
2026-04-22 17:04 -0.30880 96.60662 35897 ft 476 kts 306°
2026-04-22 17:05 -0.26990 96.55332 35897 ft 476 kts 306°
2026-04-22 17:05 -0.23091 96.49991 35897 ft 476 kts 306°
2026-04-22 17:06 -0.19354 96.44570 35896 ft 476 kts 299°
2026-04-22 17:06 -0.16696 96.38532 35901 ft 479 kts 288°
2026-04-22 17:07 -0.15038 96.32064 35898 ft 485 kts 283°
2026-04-22 17:07 -0.13592 96.25476 35892 ft 486 kts 282°
2026-04-22 17:08 -0.12196 96.18888 35894 ft 486 kts 282°
2026-04-22 17:08 -0.10823 96.12288 35896 ft 483 kts 282°
2026-04-22 17:09 -0.09502 96.05793 35891 ft 475 kts 282°
2026-04-22 17:09 -0.08183 95.99342 35892 ft 476 kts 282°
2026-04-22 17:10 -0.06842 95.92846 35895 ft 481 kts 282°
2026-04-22 17:10 -0.05461 95.86324 35895 ft 482 kts 282°
2026-04-22 17:11 -0.03993 95.79797 35888 ft 484 kts 287°
2026-04-22 17:11 -0.01199 95.73707 35890 ft 484 kts 302°
2026-04-22 17:12 0.02834 95.68370 35888 ft 484 kts 310°
2026-04-22 17:12 0.07297 95.63347 35880 ft 484 kts 312°
2026-04-22 17:13 0.11736 95.58339 35875 ft 484 kts 310°
2026-04-22 17:13 0.16059 95.53205 35874 ft 484 kts 309°
2026-04-22 17:14 0.20287 95.47995 35874 ft 483 kts 309°
2026-04-22 17:14 0.24501 95.42792 35873 ft 483 kts 309°
2026-04-22 17:15 0.28709 95.37598 35877 ft 483 kts 309°
2026-04-22 17:15 0.32952 95.32409 35874 ft 483 kts 309°
2026-04-22 17:16 0.37186 95.27248 35875 ft 483 kts 309°
2026-04-22 17:16 0.41430 95.22066 35875 ft 483 kts 309°
2026-04-22 17:17 0.45680 95.16879 35874 ft 483 kts 309°
2026-04-22 17:17 0.49934 95.11726 35874 ft 483 kts 309°
2026-04-22 17:18 0.54166 95.06539 35873 ft 482 kts 309°
2026-04-22 17:18 0.58398 95.01340 35874 ft 483 kts 309°
2026-04-22 17:19 0.66878 94.90997 35875 ft 483 kts 309°
2026-04-22 17:20 0.75370 94.80627 35875 ft 483 kts 309°
2026-04-22 17:21 0.81722 94.72873 35875 ft 483 kts 309°
2026-04-22 17:22 0.88084 94.65108 35874 ft 482 kts 309°
2026-04-22 17:23 0.94460 94.57347 35875 ft 483 kts 309°
2026-04-22 17:23 1.00811 94.49562 35875 ft 483 kts 309°
2026-04-22 17:24 1.05054 94.44390 35875 ft 483 kts 309°
2026-04-22 17:24 1.09299 94.39195 35874 ft 483 kts 309°
2026-04-22 17:25 1.13540 94.34016 35875 ft 483 kts 309°
2026-04-22 17:25 1.17781 94.28838 35874 ft 483 kts 309°
2026-04-22 17:26 1.22023 94.23658 35875 ft 483 kts 309°
2026-04-22 17:26 1.26257 94.18486 35875 ft 483 kts 309°
2026-04-22 17:27 1.30498 94.13306 35875 ft 483 kts 309°
2026-04-22 17:27 1.34740 94.08125 35876 ft 483 kts 309°
2026-04-22 17:28 1.39002 94.02941 35874 ft 483 kts 310°
2026-04-22 17:28 1.43236 93.97794 35874 ft 478 kts 309°
2026-04-22 17:29 1.47419 93.92637 35875 ft 478 kts 309°
2026-04-22 17:29 1.51612 93.87510 35875 ft 478 kts 309°
2026-04-22 17:30 1.55816 93.82365 35875 ft 478 kts 309°
2026-04-22 17:30 1.60018 93.77231 35874 ft 478 kts 309°
2026-04-22 17:31 1.64212 93.72104 35875 ft 478 kts 309°
2026-04-22 17:31 1.68421 93.66958 35873 ft 478 kts 309°
2026-04-22 17:32 1.72615 93.61833 35874 ft 478 kts 309°
2026-04-22 17:32 1.76813 93.56702 35875 ft 478 kts 309°
2026-04-22 17:33 1.81018 93.51562 35875 ft 478 kts 309°
2026-04-22 17:33 1.85227 93.46418 35875 ft 478 kts 309°
2026-04-22 17:34 1.88775 93.42102 35875 ft 478 kts 309°
2026-04-22 17:34 1.92676 93.37355 35875 ft 478 kts 309°
2026-04-22 17:35 1.96864 93.32210 35874 ft 478 kts 309°
2026-04-22 17:35 2.01046 93.27059 35875 ft 478 kts 309°
2026-04-22 17:36 2.05252 93.21926 35874 ft 478 kts 309°
2026-04-22 17:36 2.09447 93.16786 35875 ft 478 kts 309°
2026-04-22 17:37 2.13646 93.11646 35875 ft 478 kts 309°
2026-04-22 17:37 2.17847 93.06508 35879 ft 479 kts 309°
2026-04-22 17:38 2.22055 93.01360 35873 ft 478 kts 309°
2026-04-22 17:38 2.26246 92.96234 35875 ft 478 kts 309°
2026-04-22 17:39 2.30447 92.91094 35875 ft 478 kts 309°
2026-04-22 17:40 2.36761 92.83400 35875 ft 478 kts 309°
2026-04-22 17:40 2.40979 92.78262 35874 ft 478 kts 309°
2026-04-22 17:41 2.45160 92.73121 35875 ft 478 kts 309°
2026-04-22 17:41 2.49347 92.67959 35875 ft 478 kts 309°
2026-04-22 17:42 2.53532 92.62828 35875 ft 478 kts 309°
2026-04-22 17:42 2.57728 92.57682 35874 ft 478 kts 309°
2026-04-22 17:43 2.61928 92.52541 35875 ft 478 kts 309°
2026-04-22 17:43 2.66131 92.47391 35875 ft 478 kts 309°
2026-04-22 17:44 2.70322 92.42257 35875 ft 478 kts 309°
2026-04-22 17:44 2.74520 92.37116 35874 ft 478 kts 309°
2026-04-22 17:45 2.78718 92.31974 35875 ft 478 kts 309°
2026-04-22 17:45 2.82922 92.26836 35875 ft 478 kts 309°
2026-04-22 17:46 2.87150 92.21705 35875 ft 478 kts 309°
2026-04-22 17:46 2.91336 92.16568 35875 ft 478 kts 309°
2026-04-22 17:47 2.95513 92.11423 35874 ft 478 kts 309°
2026-04-22 17:47 2.99741 92.06252 35875 ft 484 kts 309°
2026-04-22 17:48 3.03298 92.01919 35874 ft 484 kts 309°
2026-04-22 17:48 3.08281 91.95863 35874 ft 484 kts 309°
2026-04-22 17:49 3.12635 91.90764 35875 ft 484 kts 310°
2026-04-22 17:49 3.17005 91.85669 35877 ft 484 kts 310°
2026-04-22 17:50 3.21370 91.80560 35873 ft 483 kts 310°
2026-04-22 17:50 3.25730 91.75451 35875 ft 484 kts 310°
2026-04-22 17:51 3.30097 91.70332 35874 ft 484 kts 310°
2026-04-22 17:51 3.34445 91.65233 35874 ft 484 kts 310°
2026-04-22 17:52 3.38808 91.60117 35875 ft 484 kts 310°
2026-04-22 17:52 3.43164 91.55008 35875 ft 484 kts 310°
2026-04-22 17:53 3.47522 91.49897 35875 ft 484 kts 310°
2026-04-22 17:53 3.51881 91.44786 35875 ft 484 kts 310°
2026-04-22 17:54 3.56221 91.39653 35875 ft 484 kts 309°
2026-04-22 17:54 3.60560 91.34526 35874 ft 484 kts 310°
2026-04-22 17:55 3.64186 91.30263 35875 ft 484 kts 310°
2026-04-22 17:55 3.69267 91.24299 35874 ft 484 kts 310°
2026-04-22 17:56 3.73623 91.19188 35875 ft 484 kts 310°
2026-04-22 17:56 3.77944 91.14116 35874 ft 484 kts 310°
2026-04-22 17:57 3.82302 91.09003 35874 ft 483 kts 310°
2026-04-22 17:57 3.86657 91.03892 35875 ft 484 kts 310°
2026-04-22 17:58 3.91014 90.98779 35874 ft 484 kts 310°
2026-04-22 17:58 3.95368 90.93660 35874 ft 483 kts 310°
2026-04-22 17:59 3.99717 90.88544 35874 ft 484 kts 310°
2026-04-22 17:59 4.04044 90.83404 35874 ft 484 kts 309°
2026-04-22 18:00 4.07639 90.79109 35875 ft 484 kts 309°
2026-04-22 18:00 4.12704 90.73128 35874 ft 484 kts 310°
2026-04-22 18:01 4.17061 90.68007 35875 ft 484 kts 310°
2026-04-22 18:01 4.21418 90.62891 35874 ft 483 kts 310°
2026-04-22 18:02 4.25774 90.57777 35875 ft 484 kts 310°
2026-04-22 18:02 4.30131 90.52662 35875 ft 484 kts 310°
2026-04-22 18:03 4.34491 90.47543 35875 ft 484 kts 310°
2026-04-22 18:03 4.38850 90.42423 35874 ft 484 kts 310°
2026-04-22 18:04 4.43173 90.37283 35875 ft 484 kts 310°
2026-04-22 18:04 4.47518 90.32153 35875 ft 484 kts 310°
2026-04-22 18:05 4.51873 90.27030 35874 ft 484 kts 310°
2026-04-22 18:05 4.56232 90.21908 35874 ft 484 kts 310°
2026-04-22 18:06 4.60582 90.16783 35874 ft 486 kts 309°
2026-04-22 18:06 4.64938 90.11584 35875 ft 489 kts 309°
2026-04-22 18:07 4.69317 90.06400 35874 ft 488 kts 309°
2026-04-22 18:07 4.73717 90.01230 35874 ft 488 kts 309°
2026-04-22 18:08 4.78088 89.96039 35874 ft 489 kts 309°
2026-04-22 18:08 4.82490 89.90869 35874 ft 488 kts 309°
2026-04-22 18:09 4.86875 89.85678 35876 ft 489 kts 309°
2026-04-22 18:09 4.91241 89.80528 35876 ft 489 kts 309°
2026-04-22 18:10 4.95614 89.75338 35875 ft 489 kts 309°
2026-04-22 18:10 5.00002 89.70146 35875 ft 489 kts 309°
2026-04-22 18:11 5.04387 89.64959 35875 ft 489 kts 309°
2026-04-22 18:11 5.08770 89.59767 35874 ft 488 kts 309°
2026-04-22 18:12 5.13155 89.54581 35874 ft 489 kts 309°
2026-04-22 18:12 5.16812 89.50254 35874 ft 488 kts 309°
2026-04-22 18:13 5.21924 89.44203 35875 ft 489 kts 309°
2026-04-22 18:13 5.26316 89.39007 35875 ft 489 kts 309°
2026-04-22 18:14 5.30703 89.33821 35875 ft 489 kts 309°
2026-04-22 18:14 5.35086 89.28636 35874 ft 489 kts 309°
2026-04-22 18:15 5.39479 89.23446 35875 ft 489 kts 309°
2026-04-22 18:15 5.43848 89.18240 35875 ft 489 kts 309°
2026-04-22 18:16 5.48227 89.13047 35875 ft 489 kts 309°
2026-04-22 18:16 5.52602 89.07842 35874 ft 489 kts 309°
2026-04-22 18:17 5.56984 89.02651 35880 ft 489 kts 309°
2026-04-22 18:17 5.61367 88.97450 35885 ft 489 kts 309°
2026-04-22 18:18 5.65740 88.92256 35896 ft 489 kts 309°
2026-04-22 18:18 5.70118 88.87060 35900 ft 489 kts 309°
2026-04-22 18:19 5.74504 88.81862 35901 ft 489 kts 309°
2026-04-22 18:19 5.78882 88.76671 35907 ft 489 kts 309°
2026-04-22 18:20 5.83265 88.71474 35908 ft 489 kts 309°
2026-04-22 18:20 5.87650 88.66287 35908 ft 489 kts 309°
2026-04-22 18:21 5.92016 88.61076 35908 ft 488 kts 309°
2026-04-22 18:21 5.96371 88.55865 35909 ft 488 kts 309°
2026-04-22 18:22 6.00749 88.50668 35909 ft 488 kts 309°
2026-04-22 18:22 6.05119 88.45460 35913 ft 489 kts 309°
2026-04-22 18:23 6.09490 88.40255 35907 ft 488 kts 309°
2026-04-22 18:23 6.13865 88.35055 35909 ft 488 kts 309°
2026-04-22 18:24 6.20425 88.27246 35911 ft 488 kts 309°
2026-04-22 18:25 6.26983 88.19441 35910 ft 488 kts 309°
2026-04-22 18:25 6.31360 88.14237 35910 ft 488 kts 309°
2026-04-22 18:26 6.37942 88.06456 35912 ft 488 kts 309°
2026-04-22 18:26 6.42309 88.01236 35909 ft 488 kts 309°
2026-04-22 18:27 6.46603 87.95969 35911 ft 488 kts 307°
2026-04-22 18:27 6.50764 87.90599 35912 ft 488 kts 307°
2026-04-22 18:28 6.54910 87.85210 35913 ft 488 kts 307°
2026-04-22 18:28 6.59063 87.79839 35913 ft 488 kts 307°
2026-04-22 18:29 6.63226 87.74464 35913 ft 488 kts 307°
2026-04-22 18:29 6.67409 87.69108 35913 ft 488 kts 307°
2026-04-22 18:30 6.73680 87.61061 35915 ft 488 kts 307°
2026-04-22 18:31 6.77864 87.55707 35914 ft 488 kts 307°
2026-04-22 18:31 6.82047 87.50350 35914 ft 488 kts 307°
2026-04-22 18:32 6.86233 87.44987 35912 ft 488 kts 307°
2026-04-22 18:32 6.90438 87.39651 35915 ft 484 kts 307°
2026-04-22 18:33 6.94564 87.34384 35916 ft 478 kts 308°
2026-04-22 18:33 6.98645 87.29123 35916 ft 478 kts 308°
2026-04-22 18:34 7.02746 87.23860 35916 ft 479 kts 308°
2026-04-22 18:34 7.06833 87.18596 35916 ft 478 kts 308°
2026-04-22 18:35 7.10924 87.13336 35917 ft 479 kts 308°
2026-04-22 18:35 7.15019 87.08070 35917 ft 479 kts 308°
2026-04-22 18:36 7.19116 87.02803 35917 ft 479 kts 308°
2026-04-22 18:36 7.23208 86.97544 35920 ft 479 kts 308°
2026-04-22 18:37 7.27303 86.92276 35930 ft 479 kts 307°
2026-04-22 18:37 7.30686 86.87864 35932 ft 479 kts 307°
2026-04-22 18:38 7.35396 86.81664 35930 ft 479 kts 307°
2026-04-22 18:38 7.39423 86.76348 35930 ft 479 kts 307°
2026-04-22 18:39 7.45479 86.68376 35934 ft 479 kts 307°
2026-04-22 18:39 7.49525 86.63071 35934 ft 479 kts 307°
2026-04-22 18:40 7.53576 86.57764 35934 ft 479 kts 307°
2026-04-22 18:40 7.57624 86.52454 35936 ft 479 kts 307°
2026-04-22 18:41 7.61670 86.47152 35933 ft 478 kts 307°
2026-04-22 18:41 7.65721 86.41845 35934 ft 479 kts 307°
2026-04-22 18:42 7.69777 86.36542 35934 ft 479 kts 307°
2026-04-22 18:42 7.73846 86.31251 35934 ft 479 kts 307°
2026-04-22 18:43 7.77885 86.25936 35934 ft 479 kts 307°
2026-04-22 18:43 7.81916 86.20612 35934 ft 479 kts 307°
2026-04-22 18:44 7.85940 86.15291 35934 ft 479 kts 307°
2026-04-22 18:44 7.89967 86.09962 35934 ft 479 kts 307°
2026-04-22 18:45 7.93999 86.04633 35934 ft 479 kts 307°
2026-04-22 18:45 7.98042 85.99321 35934 ft 479 kts 307°
2026-04-22 18:46 8.02082 85.94000 35934 ft 479 kts 307°
2026-04-22 18:46 8.06120 85.88685 35934 ft 479 kts 307°
2026-04-22 18:47 8.10164 85.83367 35936 ft 479 kts 307°
2026-04-22 18:47 8.14209 85.78049 35933 ft 478 kts 307°
2026-04-22 18:48 8.18283 85.72757 35934 ft 479 kts 307°
2026-04-22 18:48 8.22334 85.67444 35934 ft 479 kts 307°
2026-04-22 18:49 8.26368 85.62117 35934 ft 479 kts 307°
2026-04-22 18:49 8.30395 85.56787 35934 ft 479 kts 307°
2026-04-22 18:50 8.34419 85.51458 35925 ft 479 kts 307°
2026-04-22 18:50 8.38448 85.46120 35921 ft 479 kts 307°
2026-04-22 18:51 8.42472 85.40790 35923 ft 479 kts 307°
2026-04-22 18:51 8.46499 85.35453 35907 ft 479 kts 307°
2026-04-22 18:52 8.50523 85.30123 35887 ft 478 kts 307°
2026-04-22 18:52 8.54549 85.24789 35876 ft 478 kts 307°
2026-04-22 18:53 8.58577 85.19453 35874 ft 479 kts 307°
2026-04-22 18:53 8.62807 85.14285 35881 ft 479 kts 311°
2026-04-22 18:54 8.67153 85.09214 35876 ft 479 kts 309°
2026-04-22 18:54 8.71229 85.03912 35875 ft 478 kts 306°
2026-04-22 18:55 8.75081 84.98449 35875 ft 478 kts 304°
2026-04-22 18:55 8.78855 84.92935 35875 ft 478 kts 304°
2026-04-22 18:56 8.82654 84.87433 35874 ft 478 kts 304°
2026-04-22 18:56 8.86495 84.81952 35875 ft 478 kts 305°
2026-04-22 18:57 8.90370 84.76504 35875 ft 478 kts 305°
2026-04-22 18:57 8.94222 84.71037 35874 ft 478 kts 305°
2026-04-22 18:58 8.98088 84.65584 35875 ft 478 kts 305°
2026-04-22 18:58 9.01956 84.60126 35875 ft 478 kts 306°
2026-04-22 18:59 9.05851 84.54685 35875 ft 478 kts 306°
2026-04-22 18:59 9.09769 84.49262 35875 ft 478 kts 306°
2026-04-22 19:00 9.13695 84.43849 35875 ft 478 kts 306°
2026-04-22 19:00 9.17627 84.38433 35875 ft 478 kts 306°
2026-04-22 19:01 9.21561 84.33018 35874 ft 478 kts 306°
2026-04-22 19:01 9.25492 84.27609 35875 ft 478 kts 306°
2026-04-22 19:02 9.29429 84.22192 35875 ft 478 kts 306°
2026-04-22 19:02 9.33361 84.16783 35874 ft 478 kts 306°
2026-04-22 19:03 9.37300 84.11366 35875 ft 478 kts 306°
2026-04-22 19:03 9.41236 84.05954 35875 ft 478 kts 306°
2026-04-22 19:04 9.45175 84.00542 35874 ft 478 kts 306°
2026-04-22 19:04 9.49153 83.95163 35875 ft 479 kts 306°
2026-04-22 19:05 9.53112 83.89764 35875 ft 478 kts 306°
2026-04-22 19:05 9.57022 83.84321 35874 ft 480 kts 306°
2026-04-22 19:06 9.60955 83.78864 35874 ft 481 kts 306°
2026-04-22 19:07 9.66865 83.70693 35875 ft 481 kts 306°
2026-04-22 19:07 9.70810 83.65242 35875 ft 481 kts 306°
2026-04-22 19:08 9.74752 83.59795 35875 ft 481 kts 306°
2026-04-22 19:08 9.78782 83.54412 35874 ft 481 kts 311°
2026-04-22 19:09 9.83644 83.49777 35876 ft 482 kts 320°
2026-04-22 19:09 9.87984 83.46242 35875 ft 482 kts 320°
2026-04-22 19:10 9.93919 83.41104 35875 ft 481 kts 317°
2026-04-22 19:10 9.98757 83.36449 35959 ft 481 kts 315°
2026-04-22 19:11 10.03505 83.31683 35980 ft 481 kts 315°
2026-04-22 19:11 10.08267 83.26934 35981 ft 481 kts 315°
2026-04-22 19:12 10.13075 83.22237 35980 ft 481 kts 316°
2026-04-22 19:12 10.17902 83.17565 35981 ft 481 kts 316°
2026-04-22 19:13 10.22716 83.12875 35980 ft 481 kts 315°
2026-04-22 19:13 10.27532 83.08181 35980 ft 481 kts 316°
2026-04-22 19:14 10.32335 83.03475 35980 ft 481 kts 315°
2026-04-22 19:14 10.37137 82.98766 35980 ft 481 kts 316°
2026-04-22 19:15 10.41186 82.94893 35980 ft 481 kts 316°
2026-04-22 19:15 10.46847 82.89463 35980 ft 481 kts 316°
2026-04-22 19:16 10.51691 82.84796 35980 ft 481 kts 316°
2026-04-22 19:16 10.56530 82.80127 35980 ft 481 kts 316°
2026-04-22 19:17 10.61378 82.75465 35980 ft 481 kts 316°
2026-04-22 19:17 10.66225 82.70800 35980 ft 481 kts 316°
2026-04-22 19:18 10.71076 82.66139 35980 ft 481 kts 316°
2026-04-22 19:18 10.75925 82.61479 35974 ft 481 kts 316°
2026-04-22 19:19 10.80778 82.56814 35973 ft 481 kts 316°
2026-04-22 19:19 10.85635 82.52155 35978 ft 481 kts 316°
2026-04-22 19:20 10.90507 82.47537 35960 ft 481 kts 316°
2026-04-22 19:20 10.95378 82.42864 35939 ft 481 kts 316°
2026-04-22 19:21 11.00225 82.38186 35934 ft 481 kts 316°
2026-04-22 19:21 11.05061 82.33510 35939 ft 481 kts 316°
2026-04-22 19:22 11.09902 82.28826 35935 ft 481 kts 316°
2026-04-22 19:22 11.14746 82.24138 35925 ft 481 kts 316°
2026-04-22 19:23 11.19584 82.19455 35923 ft 481 kts 316°
2026-04-22 19:23 11.24423 82.14770 35920 ft 481 kts 316°
2026-04-22 19:24 11.29264 82.10081 35915 ft 481 kts 316°
2026-04-22 19:24 11.34106 82.05391 35912 ft 481 kts 316°
2026-04-22 19:25 11.38949 82.00699 35907 ft 481 kts 316°
2026-04-22 19:25 11.43783 81.96009 35905 ft 481 kts 316°
2026-04-22 19:26 11.48620 81.91309 35904 ft 481 kts 316°
2026-04-22 19:26 11.53462 81.86613 35905 ft 481 kts 316°
2026-04-22 19:27 11.58304 81.81917 35906 ft 481 kts 316°
2026-04-22 19:27 11.63145 81.77222 35899 ft 481 kts 316°
2026-04-22 19:28 11.67985 81.72529 35896 ft 481 kts 316°
2026-04-22 19:28 11.72781 81.67878 35866 ft 463 kts 316°
2026-04-22 19:28 11.75090 81.65638 35400 ft 455 kts 316°
2026-04-22 19:29 11.77352 81.63434 34900 ft 447 kts 316°
2026-04-22 19:29 11.79580 81.61268 34397 ft 441 kts 316°
2026-04-22 19:29 11.81778 81.59133 33894 ft 434 kts 316°
2026-04-22 19:29 11.83942 81.57031 33392 ft 428 kts 316°
2026-04-22 19:30 11.85369 81.55642 33056 ft 424 kts 316°
2026-04-22 19:30 11.88181 81.52911 32393 ft 417 kts 316°
2026-04-22 19:30 11.90266 81.50884 31889 ft 412 kts 315°
2026-04-22 19:30 11.92316 81.48877 31384 ft 407 kts 316°
2026-04-22 19:31 11.94346 81.46895 30889 ft 403 kts 316°
2026-04-22 19:31 11.96350 81.44926 30384 ft 399 kts 315°
2026-04-22 19:31 11.98325 81.42973 29882 ft 394 kts 315°
2026-04-22 19:31 12.00290 81.41048 29380 ft 389 kts 316°
2026-04-22 19:32 12.02231 81.39158 28880 ft 385 kts 316°
2026-04-22 19:32 12.04158 81.37286 28379 ft 381 kts 316°
2026-04-22 19:32 12.06063 81.35439 27879 ft 377 kts 316°
2026-04-22 19:32 12.07950 81.33611 27379 ft 373 kts 316°
2026-04-22 19:33 12.09815 81.31793 26878 ft 369 kts 315°
2026-04-22 19:33 12.11655 81.29980 26382 ft 370 kts 316°
2026-04-22 19:33 12.13555 81.28110 25935 ft 390 kts 316°
2026-04-22 19:33 12.15519 81.26169 25496 ft 395 kts 316°
2026-04-22 19:34 12.17476 81.24236 25050 ft 391 kts 316°
2026-04-22 19:34 12.19435 81.22327 24599 ft 387 kts 316°
2026-04-22 19:34 12.21374 81.20441 24156 ft 385 kts 316°
2026-04-22 19:34 12.23289 81.18560 23701 ft 381 kts 316°
2026-04-22 19:35 12.25198 81.16694 23250 ft 379 kts 316°
2026-04-22 19:35 12.27096 81.14848 22801 ft 376 kts 316°
2026-04-22 19:35 12.28351 81.13616 22501 ft 375 kts 316°
2026-04-22 19:35 12.30842 81.11181 21903 ft 371 kts 316°
2026-04-22 19:36 12.32701 81.09368 21454 ft 369 kts 316°
2026-04-22 19:36 12.34545 81.07558 21003 ft 366 kts 316°
2026-04-22 19:36 12.36382 81.05768 20558 ft 366 kts 317°
2026-04-22 19:36 12.38220 81.03977 20106 ft 365 kts 318°
2026-04-22 19:37 12.40051 81.02194 19656 ft 363 kts 318°
2026-04-22 19:37 12.41863 81.00427 19207 ft 360 kts 318°
2026-04-22 19:37 12.43665 80.98671 18757 ft 357 kts 318°
2026-04-22 19:37 12.45453 80.96926 18319 ft 356 kts 318°
2026-04-22 19:38 12.47227 80.95194 17859 ft 351 kts 318°
2026-04-22 19:38 12.48978 80.93483 17402 ft 347 kts 318°
2026-04-22 19:38 12.50711 80.91783 16907 ft 344 kts 317°
2026-04-22 19:38 12.52417 80.90089 16408 ft 342 kts 317°
2026-04-22 19:39 12.54118 80.88411 15909 ft 339 kts 318°
2026-04-22 19:39 12.55812 80.86747 15411 ft 337 kts 318°
2026-04-22 19:39 12.57498 80.85094 14912 ft 336 kts 318°
2026-04-22 19:39 12.59175 80.83448 14428 ft 334 kts 319°
2026-04-22 19:40 12.60853 80.81806 13919 ft 333 kts 320°
2026-04-22 19:40 12.62517 80.80179 13422 ft 331 kts 319°
2026-04-22 19:40 12.64167 80.78547 12924 ft 330 kts 319°
2026-04-22 19:40 12.65799 80.76941 12430 ft 328 kts 320°
2026-04-22 19:41 12.67454 80.75319 11926 ft 327 kts 319°
2026-04-22 19:41 12.69089 80.73712 11431 ft 326 kts 320°
2026-04-22 19:41 12.70716 80.72112 10932 ft 325 kts 320°
2026-04-22 19:41 12.72339 80.70511 10436 ft 324 kts 319°
2026-04-22 19:42 12.73940 80.68928 9928 ft 314 kts 319°
2026-04-22 19:42 12.75471 80.67408 9418 ft 300 kts 319°
2026-04-22 19:42 12.76940 80.65959 8908 ft 289 kts 320°
2026-04-22 19:42 12.78406 80.64525 8417 ft 293 kts 320°
2026-04-22 19:43 12.81400 80.61603 7428 ft 301 kts 319°
2026-04-22 19:43 12.82915 80.60116 6940 ft 303 kts 318°
2026-04-22 19:43 12.84443 80.58614 6464 ft 307 kts 319°
2026-04-22 19:44 12.85990 80.57095 5953 ft 308 kts 319°
2026-04-22 19:44 12.87486 80.55624 5431 ft 294 kts 319°
2026-04-22 19:44 12.88917 80.54215 4922 ft 281 kts 319°
2026-04-22 19:44 12.90319 80.52837 4413 ft 272 kts 319°
2026-04-22 19:45 12.91655 80.51521 4052 ft 259 kts 317°
2026-04-22 19:45 12.92892 80.50301 3975 ft 237 kts 317°
2026-04-22 19:45 12.94043 80.49171 3991 ft 227 kts 317°
2026-04-22 19:45 12.95203 80.48032 4005 ft 238 kts 317°
2026-04-22 19:46 12.96392 80.46867 3995 ft 236 kts 317°
2026-04-22 19:46 12.97577 80.45699 3988 ft 236 kts 316°
2026-04-22 19:46 12.98704 80.44543 3958 ft 225 kts 313°
2026-04-22 19:46 12.99692 80.43290 3684 ft 229 kts 307°
2026-04-22 19:47 13.00624 80.41958 3382 ft 232 kts 305°
2026-04-22 19:47 13.01537 80.40586 3049 ft 234 kts 304°
2026-04-22 19:47 13.02129 80.39686 2826 ft 225 kts 304°
2026-04-22 19:47 13.03256 80.37966 2348 ft 212 kts 305°
2026-04-22 19:48 13.04058 80.36741 2229 ft 199 kts 306°
2026-04-22 19:48 13.04795 80.35586 2036 ft 191 kts 301°
2026-04-22 19:48 13.05034 80.34316 1951 ft 175 kts 268°
2026-04-22 19:48 13.04819 80.33120 2036 ft 174 kts 257°
2026-04-22 19:49 13.04487 80.31933 1992 ft 173 kts 253°
2026-04-22 19:49 13.04126 80.30781 1998 ft 166 kts 252°
2026-04-22 19:49 13.03760 80.29660 1634 ft 170 kts 251°
2026-04-22 19:49 13.03397 80.28587 1542 ft 149 kts 251°
2026-04-22 19:50 13.03061 80.27607 1450 ft 143 kts 251°
2026-04-22 19:50 13.02755 80.26626 1414 ft 148 kts 255°
2026-04-22 19:50 13.02427 80.25614 1017 ft 150 kts 244°
2026-04-22 19:50 13.01908 80.24745 977 ft 142 kts 244°
2026-04-22 19:51 13.01524 80.23800 984 ft 145 kts 249°
2026-04-22 19:51 13.01193 80.22825 913 ft 146 kts 252°
2026-04-22 19:51 13.00872 80.21841 816 ft 146 kts 251°
2026-04-22 19:51 13.00533 80.20859 689 ft 146 kts 251°
2026-04-22 19:52 13.00175 80.19878 416 ft 147 kts 249°
2026-04-22 19:52 12.99808 80.18921 174 ft 144 kts 249°
2026-04-22 19:52 12.99464 80.17981 48 ft 134 kts 250°
2026-04-22 19:52 12.99230 80.17332 46 ft 63 kts 249°
2026-04-22 19:53 12.99067 80.16906 46 ft 61 kts 251°
2026-04-22 19:53 12.98938 80.16553 46 ft 35 kts 248°
2026-04-22 19:53 12.98845 80.16389 46 ft 19 kts 212°
2026-04-22 19:53 12.98740 80.16312 46 ft 18 kts 216°
2026-04-22 19:54 12.98644 80.16237 46 ft 17 kts 223°
2026-04-22 19:54 12.98586 80.16141 46 ft 12 kts 217°
2026-04-22 19:54 12.98511 80.16143 46 ft 11 kts 163°
2026-04-22 19:54 12.98439 80.16173 46 ft 10 kts 147°
2026-04-22 19:55 12.98423 80.16218 46 ft 5 kts 75°
2026-04-22 19:55 12.98440 80.16243 46 ft 6 kts 26°
2026-04-22 19:55 12.98475 80.16236 46 ft 6 kts 339°
2026-04-22 19:55 12.98518 80.16219 46 ft 7 kts 339°
2026-04-22 19:56 12.98534 80.16213 46 ft 0 kts 339°